Regional Weather Roundup
Issued by NWS Charleston, SC

Home | Current Version | Previous Version | Text Only | Print | Product List | Glossary On
Versions: 1 2 3 4 5 6 7 8 9 10 11 12 13 14 15 16 17 18 19 20 21 22 23 24 25 26 27 28 29 30 31 32 33 34 35 36 37 38 39 40 41 42 43 44 45 46 47 48 49 50
276
ASUS42 KCHS 232127
RWRCHS

Regional Weather Roundup
National Weather Service Charleston SC
500 PM EDT MON APR 23 2018

NOTE: "fair" indicates few or no clouds below 12,000 feet with no
significant weather and/or obstructions to visibility.

Not all stations are quality controlled. Use data with caution,
especially dewpoint observations.

SCZ027-030-031-034>040-042>050-232200-
...Southeast South Carolina...

CITY           SKY/WX    TMP DP  RH WIND       PRES   REMARKS
N Charleston   LGT RAIN  67  65  93 E22G32    30.00F FOG
Waterfront Prk   N/A     65  65 100 E26       29.86F
Mount Pleasant RAIN      64  64 100 E17G29    30.01F
Johns Island   LGT RAIN  66  66 100 E16G24    29.98F
Pinopolis      NOT AVBL
Moncks Corner  LGT RAIN  64  63  94 SE13G24   30.02F
Summerville    LGT RAIN  64  63  94 E13G22    30.00F
Beaufort MCAS  LGT RAIN  68  68 100 SE12      29.95F FOG
Beaufort Arpt  CLOUDY    66  64  94 SE12G17   29.95F FOG
Hilton Head Is CLOUDY    68  66  94 SE8       29.97F FOG
Walterboro     CLOUDY    64  64 100 SE17      29.98S
Allendale      MOCLDY    70  68  94 E8        29.95F

...Southern Midlands and Pee Dee...

CITY           SKY/WX    TMP DP  RH WIND       PRES   REMARKS
Georgetown     RAIN      63  63 100 E20G30    30.09R
Kingstree      RAIN      63  61  94 E18G29    30.04S
Orangeburg     HVY RAIN  64  63  96 E5        30.01R FOG
Barnwell       CLOUDY    68  66  94 E12G20    29.97S
Aiken          CLOUDY    63  63 100 E10       30.01S
Manning        RAIN      61  59  94 SE10G23   30.02S
Columbia       LGT RAIN  65  64  97 E17       30.01R FOG
Sumter         DRIZZLE   64  60  90 E15G22    30.00F
Florence       LGT RAIN  63  60  90 E18G33    30.07F
Myrtle Beach   LGT RAIN  64  61  90 E16G29    30.12F
N Myrtle Beach LGT RAIN  64  60  87 E20G30    30.12F

$$

GAZ063-065-086>088-099>101-113>116-118-119-134>141-150-232200-
...Southeast Georgia...

CITY           SKY/WX    TMP DP  RH WIND       PRES   REMARKS
Savannah Arpt  PTSUNNY   71  70  96 SE13      29.93F
Hunter AAF     PTSUNNY   71  68  90 SE8       29.91F
Fort Stewart   CLOUDY    73  70  88 E7        29.89F
Statesboro     FAIR      78  65  64 E8        29.90F
Sylvania       MOCLDY    77  72  83 SE8       29.93S
Claxton        FAIR      78  71  79 NE9       29.90F

...CSRA, Central and far Southeast Georgia...

CITY           SKY/WX    TMP DP  RH WIND       PRES   REMARKS
Thomson        CLOUDY    67  62  85 SE14G20   29.99S
Augusta-Bush   CLOUDY    68  65  90 E8        29.94F
Augusta-Daniel CLOUDY    68  65  90 E8        29.95F
Swainsboro     FAIR      73  68  83 E7        29.90F
Vidalia        PTSUNNY   79  70  73 E10       29.87F
Eastman        CLOUDY    72  60  65 CALM      29.90S
Hazlehurst     FAIR      82  63  52 S7        29.86F
Alma           FAIR      82  67  60 S8        29.87F
Waycross       FAIR      79  73  82 S6        29.88F
Jesup          CLOUDY    77  70  78 CALM      29.90F
Baxley         PTSUNNY   77  70  78 S6        29.87F
Brunswick      FAIR      72  64  78 SE8       29.92F
Saint Simons   FAIR      70  67  90 SE12      29.92F

$$

SCZ027-028-034-036>038-045-046-048>050-GAZ119-141-232200-
...Lake and Supplemental Coastal Observations...

STATION/POSITION TIME  TEMP    WIND        PRES    WAVE   SWELL
                       AIR SEA DIR/SP/G            HT/PER HT/PER/DIR
                 (UTC) (F)     (DEG/KT/KT) (MB)    (FT/S) (FT/S/D)
Winyah Bay       2045   64     100/ 21     1018.0F
Lake Murray      2020   63     110/ 12/ 15 1015.9
ACE Basin NERRS  2045   67     350/  4       N/A
Fort Pulaski     2100   68 65  140/  5/  8 1014.4
Sapelo Island    2100   71     140/  8     1013.0

$$

ANZ835-935-AMZ111-154-330-350-352-354-370-450-454-472-232200-
...C-MAN and Buoy Observations...

STATION/POSITION TIME  TEMP    WIND        PRES    WAVE   SWELL
                       AIR SEA DIR/SP/G            HT/PER HT/PER/DIR
                 (UTC) (F)     (DEG/KT/KT) (MB)    (FT/S) (FT/S/D)
Buoy 41004       2110   68 67  120/ 27/ 37 1016.6
Buoy 41008       2050   67 65  130/ 10/ 12 1013.1F   6/ 9   5/100/ 9
Folly Beach CMAN 2000   65     100/ 26/ 29 1016.8F
Capers Nearshore 2108   65 63  100/ 21/ 29 1016.8F
Fripp Nearshore  NOT AVBL


STATION/POSITION TIME  TEMP    WIND        PRES    WAVE   SWELL
                       AIR SEA DIR/SP/G            HT/PER HT/PER/DIR
                 (UTC) (F)     (DEG/KT/KT) (MB)    (FT/S) (FT/S/D)
5E St. Marys GA  2100      68                N/A     5/ 9
Frying Pan Buoy  2110   67 70  100/ 27/ 37 1021.0
Buoy 41025       2110   67 73  100/ 19/ 25 1027.3
Cape Lookout NC  2000          100/ 19/ 21 1026.1F
Buoy 41002       2110   69 72  100/ 21/ 25 1023.2
Buoy 41010       2110   72 75  110/ 21/ 29 1016.6
St Augustine FL  2100   71 69  150/ 15/ 17 1013.1F


$$




USA.gov is the U.S. government's official web portal to all federal, state and local government web resources and services.